EW9394 Weather Reports


time (UTC)temp
C
wind
direction
speed
KPH
gust
KPH
rain 1hr
cm
rain 24hr
cm
rain mn
cm
humidity
%
barometer
mb
20260904072112 26 168 1.6 1.6 0.00 0.00 0.00 82 1014.6
20260904071603 26 200 0.0 1.6 0.00 0.00 0.00 82 1014.6
20260904071057 26 166 3.2 4.8 0.00 0.00 0.00 82 1014.6
20260904070556 26 156 4.8 8.0 0.00 0.00 0.00 82 1014.6
20260904070052 26 187 3.2 3.2 0.00 0.00 0.00 81 1014.7
20260904065546 26 190 3.2 4.8 0.00 0.00 0.00 81 1014.9
20260904065042 26 180 3.2 4.8 0.00 0.00 0.00 81 1015.0
20260904064538 26 195 0.0 0.0 0.00 0.00 0.00 81 1014.9
20260904064032 26 196 3.2 3.2 0.00 0.00 0.00 80 1015.0
20260904063530 26 192 0.0 0.0 0.00 0.00 0.00 80 1014.9
20260904063029 26 197 3.2 3.2 0.00 0.00 0.00 80 1014.6
20260904062526 26 186 0.0 1.6 0.00 0.00 0.00 80 1014.8
20260904062021 26 175 4.8 4.8 0.00 0.00 0.00 80 1014.7
20260904061517 26 192 3.2 3.2 0.00 0.00 0.00 80 1014.8
20260904061013 26 196 4.8 4.8 0.00 0.00 0.00 79 1014.7
20260904060509 26 194 4.8 8.0 0.00 0.00 0.00 79 1014.8
20260904060005 26 207 3.2 4.8 0.00 0.00 0.00 79 1014.7
20260904055500 26 190 3.2 4.8 0.00 0.00 0.00 79 1014.7
20260904054955 26 172 4.8 4.8 0.00 0.00 0.00 79 1014.7
20260904054451 26 204 6.4 8.0 0.00 0.00 0.00 78 1014.6
20260904053947 26 183 1.6 1.6 0.00 0.00 0.00 78 1014.6
20260904053446 26 198 1.6 1.6 0.00 0.00 0.00 77 1014.8
20260904052942 26 192 0.0 0.0 0.00 0.00 0.00 76 1014.6
20260904052438 26 173 1.6 3.2 0.00 0.00 0.00 76 1014.9
20260904051933 26 168 1.6 1.6 0.00 0.00 0.00 76 1014.6
20260904051430 26 197 1.6 3.2 0.00 0.00 0.00 76 1014.4
20260904050929 26 218 4.8 8.0 0.00 0.00 0.00 75 1014.7
20260904050426 26 180 1.6 3.2 0.00 0.00 0.00 75 1014.6
20260904045926 26 181 1.6 1.6 0.00 0.00 0.00 75 1014.7
20260904045421 26 205 0.0 0.0 0.00 0.00 0.00 75 1014.6
20260904044921 26 138 3.2 3.2 0.00 0.00 0.00 75 1014.7
20260904044417 27 197 6.4 9.7 0.00 0.00 0.00 75 1014.7
20260904043913 27 184 4.8 4.8 0.00 0.00 0.00 76 1014.8
20260904043410 27 198 3.2 4.8 0.00 0.00 0.00 75 1014.6
20260904042904 27 182 1.6 1.6 0.00 0.00 0.00 74 1014.6
20260904042401 27 217 1.6 4.8 0.00 0.00 0.00 74 1014.9
20260904041855 27 184 1.6 1.6 0.00 0.00 0.00 74 1014.6
20260904041352 27 185 3.2 4.8 0.00 0.00 0.00 73 1014.8
20260904040848 27 212 4.8 9.7 0.00 0.00 0.00 73 1014.8
20260904040342 27 188 3.2 3.2 0.00 0.00 0.00 73 1014.9
20260904035839 27 178 3.2 3.2 0.00 0.00 0.00 72 1014.9
20260904035335 27 181 3.2 4.8 0.00 0.00 0.00 72 1014.8
20260904034833 27 183 4.8 8.0 0.00 0.00 0.00 71 1014.7
20260904034329 27 188 3.2 3.2 0.00 0.00 0.00 71 1014.7
20260904033825 27 181 6.4 8.0 0.00 0.00 0.00 71 1014.8
20260904033321 27 177 0.0 1.6 0.00 0.00 0.00 71 1014.7
20260904032817 27 189 4.8 4.8 0.00 0.00 0.00 71 1014.8
20260904032316 27 192 1.6 3.2 0.00 0.00 0.00 71 1015.2
20260904031811 27 198 8.0 14.5 0.00 0.00 0.00 71 1014.8
20260904031306 27 185 1.6 3.2 0.00 0.00 0.00 71 1014.6
20260904030802 27 182 3.2 4.8 0.00 0.00 0.00 71 1014.6
20260904030257 27 157 8.0 12.9 0.00 0.00 0.00 71 1014.8
20260904025754 27 166 1.6 3.2 0.00 0.00 0.00 71 1014.6
20260904025249 28 155 1.6 3.2 0.00 0.00 0.00 71 1014.7
20260904024744 28 195 3.2 3.2 0.00 0.00 0.00 71 1014.5
20260904024239 28 170 4.8 9.7 0.00 0.00 0.00 71 1014.6
20260904023735 28 222 3.2 4.8 0.00 0.00 0.00 72 1014.1
20260904023231 28 201 8.0 11.3 0.00 0.00 0.00 72 1014.1
20260904022730 28 152 3.2 3.2 0.00 0.00 0.00 74 1014.1
20260904022228 28 169 6.4 9.7 0.00 0.00 0.00 74 1013.9
20260904021723 28 213 8.0 11.3 0.00 0.00 0.00 74 1013.9
20260904021218 28 201 3.2 3.2 0.00 0.00 0.00 74 1013.6
20260904020714 28 188 1.6 1.6 0.00 0.00 0.00 74 1013.8
20260904020213 28 203 4.8 11.3 0.00 0.00 0.00 73 1013.8
20260904015712 28 160 4.8 8.0 0.00 0.00 0.00 73 1013.6
20260904015207 28 183 4.8 4.8 0.00 0.00 0.00 73 1013.4
20260904014705 28 166 3.2 4.8 0.00 0.00 0.00 73 1013.4
20260904014200 28 172 3.2 4.8 0.00 0.00 0.00 74 1013.4
20260904013658 28 19 1.6 3.2 0.00 0.00 0.00 73 1013.4
20260904013153 29 209 3.2 4.8 0.00 0.00 0.00 73 1013.2
20260904012649 29 167 3.2 3.2 0.00 0.00 0.00 72 1013.4
20260904012147 29 189 3.2 8.0 0.00 0.00 0.00 72 1013.2
20260904011647 29 192 1.6 1.6 0.00 0.00 0.00 72 1013.1
20260904011143 29 192 0.0 1.6 0.00 0.00 0.00 71 1013.0
20260904010638 29 202 1.6 1.6 0.00 0.00 0.00 70 1013.2
20260904010134 30 193 1.6 1.6 0.00 0.00 0.00 70 1012.7
20260904005629 30 156 3.2 4.8 0.00 0.00 0.00 69 1013.1
20260904005125 30 116 0.0 3.2 0.00 0.00 0.00 69 1013.1
20260904004620 30 140 3.2 3.2 0.00 0.00 0.00 68 1013.1
20260904004120 30 199 3.2 3.2 0.00 0.00 0.00 68 1013.2
20260904003616 30 157 4.8 8.0 0.00 0.00 0.00 68 1013.0
20260904003112 30 121 3.2 4.8 0.00 0.00 0.00 67 1012.9
20260904002608 30 130 1.6 3.2 0.00 0.00 0.00 66 1013.0
20260904002102 30 149 3.2 4.8 0.00 0.00 0.00 64 1012.9
20260904001557 30 177 3.2 3.2 0.00 0.00 0.00 64 1013.0
20260904001056 30 193 4.8 8.0 0.00 0.00 0.00 65 1012.8
20260904000550 30 187 1.6 3.2 0.00 0.00 0.00 66 1013.0
20260904000041 31 128 4.8 8.0 0.00 0.00 0.00 65 1012.6
20260903235536 31 185 4.8 4.8 0.00 0.00 0.00 64 1012.9
20260903235032 31 162 6.4 11.3 0.00 0.00 0.00 64 1012.9
20260903234527 31 234 3.2 4.8 0.00 0.00 0.00 65 1012.8
20260903234022 31 103 4.8 4.8 0.00 0.00 0.00 65 1012.6
20260903233518 31 179 4.8 8.0 0.00 0.00 0.00 66 1012.8
20260903233014 31 175 4.8 4.8 0.00 0.00 0.00 65 1012.5
20260903232509 31 111 4.8 4.8 0.00 0.00 0.00 65 1012.5
20260903232008 31 141 3.2 8.0 0.00 0.00 0.00 65 1012.4
20260903231502 31 130 3.2 8.0 0.00 0.00 0.00 65 1012.6
20260903230957 31 158 3.2 4.8 0.00 0.00 0.00 65 1012.5
20260903230454 32 150 6.4 9.7 0.00 0.00 0.00 64 1012.5
20260903225950 32 99 4.8 8.0 0.00 0.00 0.00 64 1012.6
20260903225444 32 187 1.6 1.6 0.00 0.00 0.00 64 1012.4
20260903224935 32 179 4.8 8.0 0.00 0.00 0.00 62 1012.5
20260903224431 32 150 4.8 4.8 0.00 0.00 0.00 62 1012.4
20260903223927 32 179 6.4 8.0 0.00 0.00 0.00 60 1012.5
20260903223426 33 133 4.8 4.8 0.00 0.00 0.00 60 1012.2
20260903222925 32 183 3.2 4.8 0.00 0.00 0.00 60 1012.5
20260903222421 33 161 6.4 8.0 0.00 0.00 0.00 60 1012.4
20260903221920 33 192 0.0 0.0 0.00 0.00 0.00 58 1012.2
20260903221420 33 163 1.6 1.6 0.00 0.00 0.00 58 1012.3
20260903220918 33 186 8.0 9.7 0.00 0.00 0.00 59 1012.4
20260903220412 33 103 3.2 4.8 0.00 0.00 0.00 58 1012.4
20260903215909 33 177 1.6 1.6 0.00 0.00 0.00 58 1012.6
20260903215407 33 175 6.4 11.3 0.00 0.00 0.00 58 1012.5
20260903214905 33 191 4.8 8.0 0.00 0.00 0.00 58 1012.5
20260903214401 33 164 4.8 4.8 0.00 0.00 0.00 59 1012.7
20260903213901 33 156 1.6 3.2 0.00 0.00 0.00 60 1012.8
20260903213356 32 214 1.6 1.6 0.00 0.00 0.00 60 1012.8
20260903212852 32 134 3.2 4.8 0.00 0.00 0.00 61 1012.9
20260903212347 32 132 4.8 8.0 0.00 0.00 0.00 60 1012.7
20260903211846 32 177 11.3 14.5 0.00 0.00 0.00 61 1013.0
20260903211343 33 209 11.3 14.5 0.00 0.00 0.00 61 1013.1
20260903210838 32 190 4.8 4.8 0.00 0.00 0.00 61 1013.1
20260903210333 32 171 6.4 9.7 0.00 0.00 0.00 62 1013.0
20260903205833 32 117 4.8 9.7 0.00 0.00 0.00 62 1013.0
20260903205333 32 206 16.1 20.9 0.00 0.00 0.00 61 1013.2
20260903204828 32 188 1.6 4.8 0.00 0.00 0.00 62 1013.1
20260903204324 32 109 6.4 9.7 0.00 0.00 0.00 61 1013.2
20260903203819 32 182 6.4 9.7 0.00 0.00 0.00 62 1013.3
20260903203315 32 206 4.8 4.8 0.00 0.00 0.00 63 1013.5
20260903202814 32 207 3.2 4.8 0.00 0.00 0.00 62 1013.6
20260903202311 32 182 3.2 3.2 0.00 0.00 0.00 64 1013.6
20260903201810 31 167 6.4 11.3 0.00 0.00 0.00 65 1013.7
20260903201305 31 202 1.6 1.6 0.00 0.00 0.00 65 1013.8
20260903200804 31 213 8.0 8.0 0.00 0.00 0.00 65 1013.7
20260903200259 32 65 4.8 8.0 0.00 0.00 0.00 65 1013.9
20260903195754 32 142 3.2 8.0 0.00 0.00 0.00 65 1013.7
20260903195250 31 184 4.8 8.0 0.00 0.00 0.00 67 1013.7
20260903194745 31 122 4.8 8.0 0.00 0.00 0.00 68 1013.8
20260903194241 31 184 8.0 12.9 0.00 0.00 0.00 67 1013.7
20260903193736 30 192 9.7 11.3 0.00 0.00 0.00 69 1013.9
20260903193232 30 78 8.0 11.3 0.00 0.00 0.00 70 1014.0
20260903192728 30 181 8.0 11.3 0.00 0.00 0.00 70 1014.0
20260903192223 30 188 4.8 4.8 0.00 0.00 0.00 70 1013.9
20260903191719 30 204 1.6 3.2 0.00 0.00 0.00 71 1014.1
20260903191214 30 196 4.8 8.0 0.00 0.00 0.00 70 1014.3
20260903190709 30 201 4.8 8.0 0.00 0.00 0.00 70 1014.4
20260903190209 31 141 6.4 9.7 0.00 0.00 0.00 69 1014.4
20260903185703 30 164 4.8 9.7 0.00 0.00 0.00 69 1014.4
20260903185158 30 196 8.0 12.9 0.00 0.00 0.00 71 1014.6
20260903184654 30 205 4.8 4.8 0.00 0.00 0.00 72 1014.8
20260903184150 29 133 9.7 12.9 0.00 0.00 0.00 73 1014.8
20260903183644 29 163 11.3 16.1 0.00 0.00 0.00 73 1014.8
20260903183139 30 232 1.6 3.2 0.00 0.00 0.00 74 1014.9
20260903182638 30 185 11.3 12.9 0.00 0.00 0.00 73 1014.9
20260903182134 29 197 8.0 11.3 0.00 0.00 0.00 75 1015.0
20260903181632 29 161 6.4 9.7 0.00 0.00 0.00 75 1015.1
20260903181126 29 134 8.0 9.7 0.00 0.00 0.00 75 1015.2
20260903180622 28 158 6.4 9.7 0.00 0.00 0.00 76 1015.2
20260903180116 28 164 3.2 4.8 0.00 0.00 0.00 76 1015.3
20260903175615 28 211 1.6 1.6 0.00 0.00 0.00 76 1015.2
20260903175114 28 204 6.4 9.7 0.00 0.00 0.00 77 1015.2
20260903174609 28 207 4.8 4.8 0.00 0.00 0.00 77 1015.3
20260903174104 28 164 1.6 3.2 0.00 0.00 0.00 78 1015.4
20260903173600 28 205 6.4 11.3 0.00 0.00 0.00 80 1015.5
20260903173056 28 205 6.4 16.1 0.00 0.00 0.00 80 1015.6
20260903172556 28 172 3.2 3.2 0.00 0.00 0.00 81 1015.7
20260903172052 28 181 4.8 11.3 0.00 0.00 0.00 80 1015.5
20260903171551 28 167 3.2 3.2 0.00 0.00 0.00 81 1015.5
20260903171047 27 156 4.8 8.0 0.00 0.00 0.00 82 1015.6
20260903170545 27 166 6.4 11.3 0.00 0.00 0.00 82 1015.5
20260903170042 27 152 3.2 3.2 0.00 0.00 0.00 82 1015.7
20260903165538 27 139 3.2 8.0 0.00 0.00 0.00 82 1015.6
20260903165034 27 122 3.2 4.8 0.00 0.00 0.00 83 1015.7
20260903164529 27 177 8.0 9.7 0.00 0.00 0.00 83 1015.5
20260903164024 27 111 9.7 16.1 0.00 0.00 0.00 82 1015.5
20260903163520 27 175 4.8 9.7 0.00 0.00 0.00 83 1015.5
20260903163015 27 180 9.7 14.5 0.00 0.00 0.00 83 1015.6
20260903162512 28 221 4.8 8.0 0.00 0.00 0.00 83 1015.3
20260903162007 28 274 4.8 4.8 0.00 0.00 0.00 83 1015.4
20260903161502 28 97 3.2 3.2 0.00 0.00 0.00 83 1015.3
20260903160958 27 188 6.4 8.0 0.00 0.00 0.00 84 1015.5
20260903160457 28 155 3.2 4.8 0.00 0.00 0.00 84 1015.3
20260903155951 27 183 8.0 11.3 0.00 0.00 0.00 85 1015.4
20260903155451 27 175 1.6 3.2 0.00 0.00 0.00 86 1015.4
20260903154947 27 188 3.2 4.8 0.00 0.00 0.00 87 1015.4
20260903154442 27 143 1.6 3.2 0.00 0.00 0.00 88 1015.2
20260903153938 27 118 3.2 8.0 0.00 0.00 0.00 89 1015.4
20260903153433 26 130 1.6 3.2 0.00 0.00 0.00 89 1015.3
20260903152930 26 156 1.6 3.2 0.00 0.00 0.00 90 1015.3
20260903152425 26 191 3.2 4.8 0.00 0.00 0.00 90 1015.4
20260903151921 26 197 0.0 1.6 0.00 0.00 0.00 90 1015.3
20260903151415 26 195 3.2 4.8 0.00 0.00 0.00 90 1015.3
20260903150916 26 142 3.2 3.2 0.00 0.00 0.00 90 1015.4
20260903150411 26 159 4.8 4.8 0.00 0.00 0.00 90 1015.4
20260903145905 26 139 4.8 4.8 0.00 0.00 0.00 91 1015.2
20260903145401 26 207 4.8 4.8 0.00 0.00 0.00 91 1015.3
20260903144900 26 161 1.6 1.6 0.00 0.00 0.00 91 1015.5
20260903144355 26 214 3.2 3.2 0.00 0.00 0.00 91 1015.3
20260903143850 26 215 3.2 4.8 0.00 0.00 0.00 92 1015.4
20260903143348 26 147 1.6 1.6 0.00 0.00 0.00 92 1015.3
20260903142848 26 129 1.6 3.2 0.00 0.00 0.00 92 1015.2
20260903142344 26 165 1.6 1.6 0.00 0.00 0.00 93 1015.5
20260903141839 26 135 1.6 1.6 0.00 0.00 0.00 93 1015.5
20260903141335 26 201 3.2 3.2 0.00 0.00 0.00 93 1015.3
20260903140830 26 174 6.4 8.0 0.00 0.00 0.00 93 1015.5
20260903140325 26 180 1.6 1.6 0.00 0.00 0.00 93 1015.4
20260903135821 26 182 0.0 0.0 0.00 0.00 0.00 94 1015.5
20260903135316 25 165 1.6 3.2 0.00 0.00 0.00 94 1015.4
20260903134815 25 180 1.6 3.2 0.00 0.00 0.00 94 1015.2
20260903134311 25 202 4.8 4.8 0.00 0.00 0.00 94 1015.5
20260903133808 25 191 1.6 1.6 0.00 0.00 0.00 95 1015.5
20260903133304 25 125 3.2 3.2 0.00 0.00 0.00 95 1015.6
20260903132804 25 112 4.8 4.8 0.00 0.00 0.00 95 1015.6
20260903132300 25 168 3.2 3.2 0.00 0.00 0.00 95 1015.4
20260903131755 25 180 1.6 3.2 0.00 0.00 0.00 95 1015.3
20260903131254 25 182 0.0 1.6 0.00 0.00 0.00 95 1015.3
20260903130749 25 175 1.6 3.2 0.00 0.00 0.00 95 1014.9
20260903130243 25 188 0.0 0.0 0.00 0.00 0.00 96 1015.2
20260903125742 25 214 3.2 3.2 0.00 0.00 0.00 95 1015.2
20260903125237 25 208 3.2 3.2 0.00 0.00 0.00 96 1015.2
20260903124737 25 138 4.8 4.8 0.00 0.00 0.00 96 1015.1
20260903124232 25 208 1.6 3.2 0.00 0.00 0.00 96 1015.1
20260903123730 25 130 1.6 1.6 0.00 0.00 0.00 95 1014.9
20260903123230 25 175 0.0 1.6 0.00 0.00 0.00 95 1014.8
20260903122729 25 129 3.2 4.8 0.00 0.00 0.00 95 1014.9
20260903122224 25 114 3.2 4.8 0.00 0.00 0.00 95 1015.2
20260903121722 25 153 3.2 4.8 0.00 0.00 0.00 95 1015.0
20260903121219 25 117 3.2 3.2 0.00 0.00 0.00 95 1014.8
20260903120718 25 137 1.6 3.2 0.00 0.00 0.00 94 1014.8
20260903120212 25 128 1.6 1.6 0.00 0.00 0.00 94 1014.7
20260903115711 25 140 3.2 3.2 0.00 0.00 0.00 94 1014.8
20260903115207 25 191 3.2 3.2 0.00 0.00 0.00 94 1014.6
20260903114707 25 129 1.6 3.2 0.00 0.00 0.00 94 1014.4
20260903114202 25 151 1.6 1.6 0.00 0.00 0.00 94 1014.5
20260903113657 25 188 0.0 0.0 0.00 0.00 0.00 94 1014.3
20260903113154 25 203 0.0 0.0 0.00 0.00 0.00 94 1014.5
20260903112649 25 191 0.0 0.0 0.00 0.00 0.00 95 1014.6
20260903112144 24 193 0.0 0.0 0.00 0.00 0.00 95 1014.8
20260903111643 24 196 1.6 1.6 0.00 0.00 0.00 95 1014.5
20260903111138 25 190 0.0 0.0 0.00 0.00 0.00 95 1014.6
20260903110634 25 189 1.6 3.2 0.00 0.00 0.00 95 1014.6
20260903110130 25 177 1.6 1.6 0.00 0.00 0.00 95 1014.9
20260903105624 25 200 4.8 4.8 0.00 0.00 0.00 95 1014.6
20260903105120 25 157 0.0 1.6 0.00 0.00 0.00 95 1014.5
20260903104619 24 169 3.2 3.2 0.00 0.00 0.00 95 1014.7
20260903104115 24 170 1.6 1.6 0.00 0.00 0.00 95 1014.4
20260903103610 24 196 1.6 1.6 0.00 0.00 0.00 95 1014.5
20260903103106 24 179 3.2 3.2 0.00 0.00 0.00 95 1014.3
20260903102601 24 151 3.2 3.2 0.00 0.00 0.00 94 1014.3
20260903102100 24 190 1.6 3.2 0.00 0.00 0.00 94 1014.4
20260903101556 24 158 1.6 1.6 0.00 0.00 0.00 94 1014.1
20260903101051 25 194 0.0 1.6 0.00 0.00 0.00 94 1014.0
20260903100551 25 171 0.0 0.0 0.00 0.00 0.00 93 1014.4
20260903100050 25 113 1.6 3.2 0.00 0.00 0.00 93 1014.1
20260903095548 25 172 3.2 3.2 0.00 0.00 0.00 93 1014.4
20260903095043 25 133 1.6 1.6 0.00 0.00 0.00 92 1014.4
20260903094543 25 161 1.6 3.2 0.00 0.00 0.00 92 1014.5
20260903094039 25 139 3.2 4.8 0.00 0.00 0.00 92 1014.1
20260903093539 25 190 3.2 3.2 0.00 0.00 0.00 93 1014.3
20260903093034 25 148 3.2 3.2 0.00 0.00 0.00 93 1014.4
20260903092533 24 182 1.6 4.8 0.00 0.00 0.00 94 1014.1
20260903092028 24 193 3.2 3.2 0.00 0.00 0.00 95 1014.1
20260903091526 24 177 3.2 3.2 0.00 0.00 0.00 95 1014.0
20260903091021 24 178 1.6 4.8 0.00 0.00 0.00 96 1014.1
20260903090517 24 231 1.6 1.6 0.00 0.00 0.00 96 1014.0
20260903090016 24 188 4.8 8.0 0.00 0.00 0.00 96 1014.3
20260903085514 25 200 6.4 8.0 0.00 0.00 0.00 96 1014.1
20260903085010 25 132 0.0 1.6 0.00 0.00 0.00 96 1014.0
20260903084508 25 190 1.6 1.6 0.00 0.00 0.00 96 1013.8
20260903084004 25 192 1.6 3.2 0.00 0.00 0.00 96 1014.0
20260903083459 25 197 0.0 0.0 0.00 0.00 0.00 96 1014.0
20260903082958 25 176 1.6 1.6 0.00 0.00 0.00 95 1013.9
20260903082453 25 197 1.6 1.6 0.00 0.00 0.00 95 1014.0
20260903081948 25 185 1.6 1.6 0.00 0.00 0.00 95 1013.8
20260903081443 25 184 0.0 0.0 0.00 0.00 0.00 94 1013.8
20260903080939 25 189 0.0 0.0 0.00 0.00 0.00 94 1013.9
20260903080435 25 202 0.0 0.0 0.00 0.00 0.00 94 1014.0
20260903075931 25 188 0.0 1.6 0.00 0.00 0.00 93 1014.0
20260903075426 25 107 0.0 0.0 0.00 0.00 0.00 93 1014.3
20260903074921 25 191 0.0 0.0 0.00 0.00 0.00 92 1013.9
20260903074420 25 181 0.0 0.0 0.00 0.00 0.00 92 1013.7
20260903073916 25 199 0.0 0.0 0.00 0.00 0.00 92 1013.5
20260903073411 25 178 0.0 0.0 0.00 0.00 0.00 91 1013.8
20260903072907 25 157 0.0 0.0 0.00 0.00 0.00 91 1014.0
20260903072402 25 54 1.6 1.6 0.00 0.00 0.00 90 1013.9